CW2157 Weather Reports


Display with metric or nautical units.
time (UTC)temp
F
wind
direction
speed
MPH
gust
MPH
rain 1hr
in
rain 24hr
in
rain mn
in
humidity
%
barometer
mb
20200328113707 53 351 2.0 3.0 0.12 0.48 0.48 95 1016.5
20200328113208 53 350 2.0 3.0 0.18 0.48 0.48 95 1016.4
20200328112707 53 20 3.0 5.0 0.18 0.48 0.48 95 1016.3
20200328112207 53 72 1.0 3.0 0.19 0.48 0.48 96 1016.1
20200328111707 53 72 2.0 5.0 0.19 0.47 0.47 95 1016.1
20200328111207 53 55 3.0 6.0 0.18 0.46 0.46 95 1015.8
20200328110706 53 6 5.0 7.0 0.18 0.46 0.46 95 1015.9
20200328110208 53 83 4.0 6.0 0.20 0.46 0.46 95 1016.0
20200328105707 53 40 2.0 3.0 0.20 0.45 0.45 95 1016.4
20200328105207 53 64 2.0 3.0 0.21 0.40 0.40 95 1016.3
20200328104708 53 61 5.0 7.0 0.22 0.39 0.39 95 1015.6
20200328104207 53 88 5.0 7.0 0.22 0.39 0.39 95 1015.3
20200328103707 53 69 4.0 6.0 0.20 0.36 0.36 95 1016.1
20200328103207 53 11 3.0 6.0 0.14 0.30 0.30 95 1016.5
20200328102707 53 3 3.0 6.0 0.14 0.30 0.30 95 1016.4
20200328102207 53 31 5.0 7.0 0.13 0.29 0.29 95 1015.9
20200328101707 53 63 5.0 7.0 0.12 0.28 0.28 95 1015.7
20200328101207 53 59 2.0 5.0 0.12 0.28 0.28 94 1016.1
20200328100707 53 61 1.0 3.0 0.12 0.28 0.28 94 1016.2
20200328100208 53 57 2.0 3.0 0.10 0.26 0.26 94 1016.3
20200328095707 53 57 1.0 3.0 0.09 0.25 0.25 94 1015.9
20200328095207 54 46 3.0 5.0 0.03 0.19 0.19 94 1016.3
20200328094707 54 48 5.0 7.0 0.01 0.17 0.17 94 1016.1
20200328094207 54 358 3.0 5.0 0.01 0.17 0.17 94 1016.3
20200328093707 54 357 3.0 6.0 0.00 0.16 0.16 94 1016.1
20200328093258 54 104 2.0 3.0 0.00 0.16 0.16 94 1015.7
20200328092708 54 123 2.0 3.0 0.00 0.16 0.16 94 1015.7
20200328091208 54 126 2.0 3.0 0.00 0.16 0.16 94 1015.6
20200328090707 54 127 1.0 2.0 0.01 0.16 0.16 94 1015.7
20200328090208 54 128 1.0 3.0 0.01 0.16 0.16 94 1015.3
20200328085707 54 126 3.0 8.0 0.02 0.16 0.16 94 1015.1
20200328085207 54 130 3.0 9.0 0.05 0.16 0.16 94 1014.8
20200328084706 54 148 4.0 9.0 0.06 0.16 0.16 94 1014.7
20200328084207 55 127 3.0 6.0 0.07 0.16 0.16 94 1014.9
20200328083708 55 176 2.0 7.0 0.11 0.16 0.16 94 1015.1
20200328083207 55 149 3.0 10.0 0.12 0.16 0.16 94 1015.3
20200328082707 55 170 2.0 6.0 0.13 0.16 0.16 94 1015.3
20200328082207 55 187 5.0 9.0 0.14 0.16 0.16 94 1015.3
20200328081707 55 139 4.0 6.0 0.15 0.16 0.16 93 1015.2
20200328081207 55 175 5.0 12.0 0.15 0.16 0.16 93 1015.5
20200328080708 55 186 9.0 13.0 0.15 0.15 0.15 94 1015.6
20200328080207 55 182 5.0 7.0 0.15 0.15 0.15 94 1015.4
20200328075709 55 156 6.0 10.0 0.14 0.14 0.14 93 1015.1
20200328075208 55 192 5.0 9.0 0.11 0.11 0.11 93 1015.6
20200328074707 55 211 6.0 7.0 0.10 0.10 0.10 93 1016.1
20200328074208 55 228 6.0 9.0 0.09 0.09 0.09 93 1016.3
20200328073707 55 174 2.0 5.0 0.05 0.05 0.05 93 1015.8
20200328073207 56 155 0.0 1.0 0.04 0.04 0.04 93 1015.7
20200328072707 56 155 0.0 2.0 0.03 0.03 0.03 93 1015.8
20200328072208 56 154 1.0 3.0 0.02 0.02 0.02 93 1015.5
20200328071707 56 159 1.0 3.0 0.01 0.01 0.01 93 1015.6
20200328071208 55 160 2.0 3.0 0.01 0.01 0.01 92 1015.7
20200328070714 55 162 2.0 3.0 0.00 0.00 0.00 92 1015.7
20200328070208 55 162 1.0 3.0 0.00 0.00 0.00 92 1016.4
20200328065706 55 79 1.0 3.0 0.00 0.00 0.00 92 1015.9
20200328065208 55 72 2.0 3.0 0.00 0.00 0.00 92 1015.7
20200328064707 55 65 2.0 3.0 0.00 0.00 0.00 92 1015.8
20200328064207 55 57 0.0 0.0 0.00 0.00 0.00 92 1015.9
20200328063706 55 57 0.0 0.0 0.00 0.00 0.00 92 1015.9
20200328063206 55 57 0.0 0.0 0.00 0.00 0.00 92 1016.0
20200328062707 55 358 0.0 1.0 0.00 0.00 0.00 92 1016.0
20200328062207 55 358 0.0 0.0 0.00 0.00 0.00 91 1016.0
20200328061707 55 358 0.0 0.0 0.00 0.00 0.00 91 1016.0
20200328061207 55 358 0.0 0.0 0.00 0.00 0.00 92 1016.0
20200328060707 55 358 0.0 0.0 0.00 0.00 0.00 92 1016.0
20200328060257 55 358 0.0 0.0 0.00 0.00 0.00 92 1015.9
20200328055707 55 358 0.0 0.0 0.00 0.00 0.00 91 1016.0
20200328055208 55 358 0.0 0.0 0.00 0.00 0.00 91 1015.9
20200328054707 55 358 0.0 0.0 0.00 0.00 0.00 91 1016.0
20200328054207 55 358 0.0 0.0 0.00 0.00 0.00 91 1016.1
20200328053707 55 358 0.0 0.0 0.00 0.00 0.00 91 1016.1
20200328053207 55 358 0.0 0.0 0.00 0.00 0.00 91 1016.1
20200328052707 55 358 0.0 0.0 0.00 0.00 0.00 91 1016.1
20200328052208 56 358 0.0 0.0 0.00 0.00 0.00 91 1016.2
20200328051707 56 358 0.0 0.0 0.00 0.00 0.00 91 1016.2
20200328051208 56 358 0.0 0.0 0.00 0.00 0.00 91 1016.2
20200328050707 56 358 0.0 0.0 0.00 0.00 0.00 91 1016.2
20200328050208 56 358 0.0 0.0 0.00 0.00 0.00 91 1016.2
20200328045707 56 358 0.0 0.0 0.00 0.00 0.00 91 1016.2
20200328045207 56 358 0.0 0.0 0.00 0.00 0.00 91 1016.2
20200328044707 56 358 0.0 0.0 0.00 0.00 0.00 91 1016.3
20200328044207 55 358 0.0 0.0 0.00 0.00 0.00 91 1016.2
20200328043707 55 358 0.0 1.0 0.00 0.00 0.00 91 1016.0
20200328043207 55 358 0.0 0.0 0.00 0.00 0.00 91 1015.9
20200328042709 55 358 0.0 0.0 0.00 0.00 0.00 91 1016.3
20200328042207 55 358 0.0 0.0 0.00 0.00 0.00 91 1016.4
20200328041707 55 358 0.0 0.0 0.00 0.00 0.00 91 1016.3
20200328041207 55 358 0.0 0.0 0.00 0.00 0.00 90 1016.3
20200328040708 55 358 0.0 2.0 0.00 0.00 0.00 91 1016.4
20200328040207 55 358 2.0 3.0 0.00 0.00 0.00 91 1016.1
20200328035707 55 325 1.0 3.0 0.00 0.00 0.00 90 1016.4
20200328035207 55 319 0.0 0.0 0.00 0.00 0.00 90 1016.5
20200328034707 55 319 0.0 0.0 0.00 0.00 0.00 90 1016.5
20200328034207 55 319 0.0 0.0 0.00 0.00 0.00 90 1016.4
20200328033708 55 319 0.0 0.0 0.00 0.00 0.00 90 1016.2
20200328033207 55 319 0.0 0.0 0.00 0.00 0.00 90 1016.1
20200328032707 55 319 0.0 0.0 0.00 0.00 0.00 89 1016.1
20200328032206 55 319 0.0 0.0 0.00 0.00 0.00 89 1016.1
20200328031708 55 319 0.0 3.0 0.00 0.00 0.00 89 1016.1
20200328031207 55 308 0.0 2.0 0.00 0.00 0.00 88 1016.1
20200328030707 55 308 0.0 0.0 0.00 0.00 0.00 88 1016.2
20200328030208 55 308 0.0 0.0 0.00 0.00 0.00 87 1016.3
20200328025707 55 308 0.0 0.0 0.00 0.00 0.00 87 1016.2
20200328025206 55 308 0.0 0.0 0.00 0.00 0.00 87 1016.0
20200328024708 55 308 0.0 0.0 0.00 0.00 0.00 87 1015.9
20200328024208 55 308 0.0 0.0 0.00 0.00 0.00 87 1015.8
20200328023707 55 308 0.0 2.0 0.00 0.00 0.00 87 1015.7
20200328023208 55 308 2.0 2.0 0.00 0.00 0.00 87 1015.9
20200328022707 55 308 0.0 0.0 0.00 0.00 0.00 87 1015.4
20200328022207 56 308 0.0 0.0 0.00 0.00 0.00 87 1015.1
20200328021708 56 308 0.0 0.0 0.00 0.00 0.00 87 1015.5
20200328021207 56 308 1.0 2.0 0.00 0.00 0.00 87 1015.7
20200328020707 56 308 1.0 3.0 0.00 0.00 0.00 87 1015.6
20200328020207 56 305 0.0 2.0 0.00 0.00 0.00 86 1015.6
20200328015708 56 305 0.0 2.0 0.00 0.00 0.00 86 1015.7
20200328015207 56 305 1.0 2.0 0.00 0.00 0.00 86 1015.7
20200328014707 56 305 0.0 0.0 0.00 0.00 0.00 85 1015.2
20200328014209 56 305 0.0 0.0 0.00 0.00 0.00 86 1015.2
20200328013707 56 305 0.0 0.0 0.00 0.00 0.00 86 1015.3
20200328013206 56 305 0.0 0.0 0.00 0.00 0.00 86 1015.4
20200328012707 56 305 0.0 0.0 0.00 0.00 0.00 86 1015.4
20200328012208 56 305 0.0 0.0 0.00 0.00 0.00 85 1015.1
20200328011707 56 305 0.0 0.0 0.00 0.00 0.00 85 1015.2
20200328011208 56 305 0.0 0.0 0.00 0.00 0.00 85 1015.2
20200328010707 56 305 0.0 0.0 0.00 0.00 0.00 84 1015.5
20200328010207 56 305 1.0 3.0 0.00 0.00 0.00 84 1015.5
20200328005707 56 346 1.0 3.0 0.00 0.00 0.00 83 1015.4
20200328005207 56 8 0.0 0.0 0.00 0.00 0.00 82 1015.4
20200328004707 56 8 0.0 0.0 0.00 0.00 0.00 83 1015.3
20200328004206 57 8 0.0 0.0 0.00 0.00 0.00 83 1015.2
20200328003707 57 8 0.0 0.0 0.00 0.00 0.00 82 1015.1
20200328003207 57 8 0.0 0.0 0.00 0.00 0.00 82 1015.2
20200328002707 57 8 0.0 0.0 0.00 0.00 0.00 81 1015.0
20200328002208 57 8 0.0 0.0 0.00 0.00 0.00 81 1014.8
20200328001707 57 8 0.0 0.0 0.00 0.00 0.00 81 1014.8
20200328001207 57 8 0.0 0.0 0.00 0.00 0.00 81 1014.7
20200328000707 58 8 0.0 0.0 0.00 0.00 0.00 78 1014.7
20200328000208 58 8 0.0 0.0 0.00 0.00 0.00 78 1014.6
20200327235708 58 8 0.0 0.0 0.00 0.00 0.00 77 1014.5
20200327235208 59 8 0.0 0.0 0.00 0.00 0.00 77 1014.4
20200327234708 59 8 0.0 0.0 0.00 0.00 0.00 77 1014.3
20200327234207 59 8 0.0 0.0 0.00 0.00 0.00 76 1014.2
20200327233708 60 8 0.0 0.0 0.00 0.00 0.00 76 1014.2
20200327233208 60 8 0.0 0.0 0.00 0.00 0.00 76 1013.9
20200327232710 60 8 0.0 0.0 0.00 0.00 0.00 75 1013.8
20200327232209 61 8 0.0 0.0 0.00 0.00 0.00 75 1013.7
20200327231708 61 8 0.0 1.0 0.00 0.00 0.00 76 1013.6
20200327231207 61 8 1.0 2.0 0.00 0.00 0.00 75 1013.5
20200327230708 61 8 0.0 0.0 0.00 0.00 0.00 74 1013.6
20200327230208 61 8 0.0 0.0 0.00 0.00 0.00 73 1013.6
20200327225708 62 8 0.0 0.0 0.00 0.00 0.00 72 1013.6
20200327225207 62 8 0.0 0.0 0.00 0.00 0.00 72 1013.6
20200327224708 62 8 0.0 0.0 0.00 0.00 0.00 71 1013.7
20200327224208 62 8 0.0 1.0 0.00 0.00 0.00 71 1013.7
20200327223708 62 59 0.0 1.0 0.00 0.00 0.00 71 1013.8
20200327223208 63 57 0.0 0.0 0.00 0.00 0.00 70 1013.4
20200327222707 63 57 0.0 0.0 0.00 0.00 0.00 70 1013.4
20200327222208 63 57 2.0 3.0 0.00 0.00 0.00 70 1013.3
20200327221709 63 56 2.0 3.0 0.00 0.00 0.00 70 1013.3
20200327221207 63 56 3.0 3.0 0.00 0.00 0.00 69 1013.3
20200327220709 63 56 1.0 3.0 0.00 0.00 0.00 69 1013.2
20200327220208 63 65 2.0 3.0 0.00 0.00 0.00 70 1013.2
20200327215707 63 58 2.0 3.0 0.00 0.00 0.00 70 1013.1
20200327215209 63 58 1.0 3.0 0.00 0.00 0.00 69 1012.9
20200327214708 63 58 3.0 3.0 0.00 0.00 0.00 69 1012.8
20200327214208 63 58 3.0 3.0 0.00 0.00 0.00 69 1012.6
20200327213707 63 91 2.0 5.0 0.00 0.00 0.00 69 1012.5
20200327213208 63 47 3.0 5.0 0.00 0.00 0.00 68 1012.6
20200327212709 63 45 2.0 6.0 0.00 0.00 0.00 68 1012.6
20200327212208 63 29 4.0 8.0 0.00 0.00 0.00 68 1012.7
20200327211707 63 45 5.0 7.0 0.00 0.00 0.00 69 1012.7
20200327211207 63 34 4.0 6.0 0.00 0.00 0.00 69 1012.7
20200327210708 63 65 2.0 5.0 0.00 0.00 0.00 68 1012.4
20200327210208 63 45 5.0 7.0 0.00 0.00 0.00 67 1012.5
20200327205708 64 45 5.0 9.0 0.00 0.00 0.00 68 1012.3
20200327205208 64 47 5.0 10.0 0.00 0.00 0.00 68 1012.5
20200327204708 63 1 5.0 10.0 0.00 0.00 0.00 69 1012.4
20200327204208 63 60 5.0 10.0 0.00 0.00 0.00 68 1012.2
20200327203709 63 40 6.0 10.0 0.00 0.00 0.00 67 1012.1
20200327203207 63 48 3.0 6.0 0.00 0.00 0.00 69 1012.2
20200327202707 63 33 4.0 7.0 0.00 0.00 0.00 69 1012.3
20200327202208 63 48 5.0 7.0 0.00 0.00 0.00 69 1012.1
20200327201707 63 52 5.0 6.0 0.00 0.00 0.00 69 1011.9
20200327201209 63 12 2.0 5.0 0.00 0.00 0.00 68 1011.9
20200327200716 64 8 1.0 3.0 0.00 0.00 0.00 68 1012.0
20200327200210 64 3 2.0 3.0 0.00 0.00 0.00 68 1012.0
20200327195709 64 3 3.0 6.0 0.00 0.00 0.00 67 1012.0
20200327195207 64 358 2.0 3.0 0.00 0.00 0.00 66 1012.0
20200327194707 64 36 3.0 7.0 0.00 0.00 0.00 66 1011.7
20200327171715 63 355 4.0 10.0 0.00 0.00 0.00 69 1012.3
20200327171221 61 12 9.0 13.0 0.00 0.00 0.00 87 1011.7
20200327165205 58 0 2.0 3.0 0.00 0.00 0.00 82 1010.2
20200327164705 58 0 2.0 3.0 0.00 0.00 0.00 82 1010.2
20200327164205 58 0 2.0 3.0 0.00 0.00 0.00 82 1010.2
20200327163705 58 0 2.0 3.0 0.00 0.00 0.00 82 1010.2
20200327163205 58 0 2.0 3.0 0.00 0.00 0.00 82 1010.2
20200327162705 58 0 2.0 3.0 0.00 0.00 0.00 82 1010.2
20200327161206 58 0 2.0 3.0 0.00 0.00 0.00 82 1010.2
20200327160705 58 0 2.0 3.0 0.00 0.00 0.00 82 1010.2
20200327160206 58 0 2.0 3.0 0.00 0.00 0.00 82 1010.2
20200327155705 58 0 2.0 3.0 0.00 0.00 0.00 82 1010.2
20200327155206 58 0 2.0 3.0 0.00 0.00 0.00 82 1010.2
20200327154706 58 0 2.0 3.0 0.00 0.00 0.00 82 1010.2
20200327154206 58 0 2.0 3.0 0.00 0.00 0.00 82 1010.2
20200327152707 58 0 2.0 3.0 0.00 0.00 0.00 82 1010.2
20200327134708 58 237 1.0 5.0 0.00 0.00 0.00 83 1010.0
20200327134207 58 259 2.0 6.0 0.00 0.00 0.00 84 1010.2
20200327133707 57 294 2.0 6.0 0.00 0.00 0.00 84 1010.1
20200327133208 57 258 2.0 5.0 0.00 0.00 0.00 86 1010.2
20200327132708 56 342 1.0 3.0 0.00 0.00 0.00 86 1010.5
20200327132208 56 341 2.0 5.0 0.00 0.00 0.00 89 1010.4
20200327131707 56 275 1.0 3.0 0.00 0.00 0.00 90 1010.3
20200327131207 55 278 3.0 5.0 0.00 0.00 0.00 91 1010.1
20200327130707 54 313 1.0 7.0 0.00 0.00 0.00 92 1010.3
20200327130208 54 307 2.0 5.0 0.00 0.00 0.00 93 1010.3
20200327125708 54 234 2.0 6.0 0.00 0.00 0.00 94 1010.1
20200327125207 53 269 0.0 0.0 0.00 0.00 0.00 94 1010.1
20200327124707 53 340 0.0 2.0 0.00 0.00 0.00 94 1010.2
20200327124207 53 334 0.0 3.0 0.00 0.00 0.00 94 1010.2
20200327123710 52 334 0.0 1.0 0.00 0.00 0.00 94 1010.2
20200327123208 52 334 0.0 1.0 0.00 0.00 0.00 94 1010.2
20200327122708 52 334 0.0 1.0 0.00 0.00 0.00 93 1010.2
20200327122207 52 334 0.0 0.0 0.00 0.00 0.00 93 1010.1
20200327121707 51 334 0.0 1.0 0.00 0.00 0.00 93 1010.2
20200327121207 51 334 0.0 1.0 0.00 0.00 0.00 93 1010.2
20200327120707 51 334 1.0 2.0 0.00 0.00 0.00 92 1010.1
20200327120208 51 334 0.0 1.0 0.00 0.00 0.00 92 1009.7
20200327115707 51 334 0.0 0.0 0.00 0.00 0.00 91 1009.8
20200327115207 51 334 0.0 0.0 0.00 0.00 0.00 91 1009.9
20200327114707 51 334 0.0 0.0 0.00 0.00 0.00 91 1009.7
20200327114207 51 334 0.0 0.0 0.00 0.00 0.00 91 1009.5